Home > Weather > Changsha > Past weeks

Flag for China Weather for the Past 2 Weeks in Changsha, Hunan, China

Now
73 °F

Passing clouds.


Feels Like: 72 °F
Forecast: 67 / 79 °F
Wind: 3 mph from Southeast

Location: Changsha

Current Time: May 6, 2016 at 11:11:50 PM

Latest Report: May 6, 2016 at 10:00 PM


Visibility: 5 mi

Pressure: 29.74 "Hg

Humidity: 89%

Dew Point: 70 °F

Location of ChangshaLocation

Historic Weather in Changsha — Graph

°F

Changsha Temperature Yesterday

Maximum temperature yesterday: 84 °F (at 4:00 PM)
Minimum temperature yesterday: 70 °F (at 12:00 AM)
Average temperature yesterday: 76 °F

High & Low Weather Summary for the Past Weeks

 TemperatureHumidityPressure
High88 °F (May 6, 12:00 PM)100% (Apr 23, 10:00 AM)30.04 "Hg (Apr 23, 10:00 AM)
Low59 °F (Apr 28, 4:00 AM)28% (May 3, 5:00 PM)29.62 "Hg (May 2, 2:00 PM)
Average70 °F79%29.82 "Hg
* Reported Apr 21 10:00 PM — May 6 10:00 PM, Changsha, Weather by CustomWeather, © 2016

Note: Actual official high and low records may vary slightly from our data, if they occured in-between our weather recording intervals... More about our weather records

Advertising

Changsha Weather History for the Previous 24 Hours

Scroll right to see more
 ConditionsComfort  
Time TempWeatherWind HumidityBarometerVisibility
10:00 PM
Fri, May 6
73 °FPassing clouds.3 mph89%29.74 "Hg5 mi
9:00 PM73 °FPassing clouds.6 mph89%29.74 "Hg5 mi
8:00 PM75 °FClear.3 mph83%29.71 "Hg10 mi
7:00 PM75 °FSunny.1 mph78%29.71 "Hg10 mi
6:00 PM75 °FPassing clouds.6 mph78%29.71 "HgN/A
5:00 PM75 °FPassing clouds.3 mph78%29.68 "HgN/A
4:00 PM77 °FThunderstorms. Partly sunny.10 mph79%29.68 "HgN/A
3:00 PM84 °FOvercast.6 mph74%29.68 "Hg4 mi
2:00 PM86 °FScattered clouds.3 mph66%29.68 "Hg5 mi
1:00 PM88 °FScattered clouds.3 mph59%29.71 "Hg5 mi
12:00 PM88 °FScattered clouds.1 mph59%29.74 "Hg5 mi
11:00 AM86 °FPassing clouds.3 mph62%29.74 "Hg5 mi
10:00 AM82 °FPassing clouds.1 mph70%29.77 "Hg5 mi
9:00 AM82 °FPassing clouds.1 mph70%29.74 "Hg6 mi
8:00 AM77 °FClear.6 mph83%29.71 "Hg5 mi
7:00 AM73 °FClear.3 mph94%29.68 "Hg4 mi
6:00 AM72 °FFog.3 mph94%29.68 "Hg2 mi
5:00 AM72 °FFog.No wind94%29.68 "Hg2 mi
4:00 AM72 °FFog.1 mph94%29.68 "Hg3 mi
3:00 AM72 °FFog.1 mph94%29.71 "Hg3 mi
2:00 AM73 °FClear.No wind89%29.71 "Hg4 mi
1:00 AM73 °FClear.1 mph94%29.71 "Hg4 mi
12:00 AM75 °FPassing clouds.1 mph89%29.71 "Hg5 mi
11:00 PM
Thu, May 5
75 °FPassing clouds.No wind89%29.71 "Hg4 mi
Weather by CustomWeather, © 2016

See weather overviewHow to use our weather pages